Fort Polk, LA

10:34 PM CDT on June 22, 2017 (GMT -0500)
Fort Polk

Weather History for KBKB - January, 2013

Change the Weather History Date:

Friday, January 25, 2013

  Actual Average (KPOE) Record (KPOE)
Temperature  
Mean Temperature 68 °F -  
Max Temperature 77 °F 58 °F 75 °F (2013)
Min Temperature 59 °F 39 °F 21 °F (2014)
Cooling Degree Days 3    
Growing Degree Days 18 (Base 50)    
Moisture  
Dew Point 58 °F    
Average Humidity 80    
Maximum Humidity 94    
Minimum Humidity 48    
Precipitation  
Precipitation 0.00 in - - ()
Sea Level Pressure  
Sea Level Pressure 30.20 in    
Wind  
Wind Speed 4 mph (SSW)    
Max Wind Speed 10 mph    
Max Gust Speed 21 mph    
Visibility 9 miles    
Events      
Averages and records for this station are not official NWS values.
T = Trace of Precipitation, MM = Missing Value Source: NWS Daily Summary

Daily Weather History Graph

Daily Weather History Graph

Search for Another Location

Airport or City:

Trip Planner

Search our weather history database for the weather conditions in past years. The results will help you decide how hot, cold, wet, or windy it might be!

Date:

Astronomy

Jan. 25, 2013 Rise Set
Actual Time 7:07 AM CST 5:41 PM CST
Civil Twilight 6:41 AM CST 6:06 PM CST
Nautical Twilight 6:12 AM CST 6:36 PM CST
Astronomical Twilight 5:43 AM CST 7:04 PM CST
Moon 4:38 PM CST (1/25) 5:46 AM CST (1/25)
Length of Visible Light 11h 25m
Length of Day
10h 34m
Waxing Gibbous, 98% of the Moon is Illuminated
Jan 25
Waxing Gibbous
Jan 26
Full
Feb 3
Last Quarter
Feb 10
New
Feb 17
First Quarter

Hourly Weather History & Observations

Time (CST) Temp. Dew Point Humidity Pressure Visibility Wind Dir Wind Speed Gust Speed Precip Events Conditions
12:54 AM 60.1 °F 57.0 °F 90% 30.24 in 10.0 mi Variable 5.8 mph - N/A   Clear
1:11 AM 60.8 °F 57.2 °F 88% 30.15 in 10.0 mi Variable 4.6 mph - N/A   Partly Cloudy
1:41 AM 60.8 °F 57.2 °F 88% 30.15 in 10.0 mi Variable 3.5 mph - N/A   Mostly Cloudy
1:54 AM 60.1 °F 57.9 °F 93% 30.23 in 10.0 mi Variable 3.5 mph - N/A   Overcast
2:54 AM 60.1 °F 57.0 °F 90% 30.23 in 10.0 mi Variable 4.6 mph - N/A   Mostly Cloudy
3:39 AM 60.8 °F 57.2 °F 88% 30.14 in 10.0 mi Variable 3.5 mph - N/A   Mostly Cloudy
3:54 AM 60.1 °F 57.9 °F 93% 30.22 in 10.0 mi South 4.6 mph - N/A   Overcast
4:54 AM 60.1 °F 57.0 °F 90% 30.22 in 10.0 mi Calm Calm - N/A   Mostly Cloudy
5:38 AM 59.0 °F 57.2 °F 94% 30.14 in 10.0 mi Calm Calm - N/A   Mostly Cloudy
5:54 AM 59.0 °F 57.0 °F 93% 30.24 in 10.0 mi Calm Calm - N/A   Overcast
6:54 AM 59.0 °F 57.0 °F 93% 30.25 in 10.0 mi Calm Calm - N/A   Overcast
7:24 AM 59.0 °F 57.2 °F 94% 30.16 in 8.0 mi South 4.6 mph - N/A   Overcast
7:54 AM 59.0 °F 57.0 °F 93% 30.25 in 8.0 mi SSW 4.6 mph - N/A   Overcast
8:54 AM 61.0 °F 59.0 °F 93% 30.25 in 10.0 mi Variable 3.5 mph - N/A   Overcast
9:14 AM 62.6 °F 60.8 °F 94% 30.17 in 10.0 mi Variable 4.6 mph - N/A   Overcast
9:54 AM 64.9 °F 60.1 °F 84% 30.26 in 10.0 mi SSW 8.1 mph 18.4 mph N/A   Mostly Cloudy
10:14 AM 66.2 °F 60.8 °F 83% 30.18 in 10.0 mi SW 8.1 mph - N/A   Mostly Cloudy
10:32 AM 69.8 °F 60.8 °F 73% 30.18 in 10.0 mi SW 10.4 mph 20.7 mph N/A   Mostly Cloudy
10:54 AM 69.1 °F 60.1 °F 73% 30.25 in 10.0 mi Variable 5.8 mph - N/A   Mostly Cloudy
11:18 AM 71.6 °F 59.0 °F 64% 30.17 in 10.0 mi Variable 5.8 mph - N/A   Scattered Clouds
11:54 AM 73.0 °F 57.9 °F 59% 30.25 in 10.0 mi SW 8.1 mph - N/A   Scattered Clouds
12:54 PM 75.0 °F 55.9 °F 51% 30.20 in 10.0 mi Variable 5.8 mph - N/A   Mostly Cloudy
1:54 PM 77.0 °F 57.0 °F 50% 30.17 in 10.0 mi Variable 5.8 mph - N/A   Partly Cloudy
2:54 PM 77.0 °F 55.9 °F 48% 30.16 in 10.0 mi Variable 3.5 mph - N/A   Scattered Clouds
3:54 PM 75.9 °F 57.0 °F 52% 30.15 in 10.0 mi Variable 3.5 mph - N/A   Partly Cloudy
4:54 PM 73.9 °F 57.0 °F 55% 30.14 in 10.0 mi Calm Calm - N/A   Partly Cloudy
5:54 PM 68.0 °F 57.9 °F 70% 30.17 in 10.0 mi Calm Calm - N/A   Partly Cloudy
6:54 PM 66.0 °F 57.9 °F 75% 30.19 in 9.0 mi Calm Calm - N/A   Mostly Cloudy
7:54 PM 66.0 °F 57.9 °F 75% 30.20 in 10.0 mi Calm Calm - N/A   Scattered Clouds
8:54 PM 64.0 °F 57.9 °F 80% 30.20 in 9.0 mi Calm Calm - N/A   Clear
9:54 PM 63.0 °F 59.0 °F 87% 30.22 in 6.0 mi Calm Calm - N/A   Clear
10:54 PM 61.0 °F 59.0 °F 93% 30.23 in 7.0 mi Calm Calm - N/A   Clear
11:54 PM 60.1 °F 57.9 °F 93% 30.22 in 2.5 mi Calm Calm - N/A   Clear